Regional Weather Roundup
Issued by NWS Northern Indiana

Home | Current Version | Previous Version | Text Only | Print | Product List | Glossary Off
Versions: 1 2 3 4 5 6 7 8 9 10 11 12 13 14 15 16 17 18 19 20 21 22 23 24 25 26 27 28 29 30 31 32 33 34 35 36 37 38 39 40 41 42 43 44 45 46 47 48 49 50

700
ASUS43 KIWX 160900
RWRIWX

KIWX WEATHER ROUNDUP
NATIONAL WEATHER SERVICE NORTHERN INDIANA
400 AM EST MON JAN 16 2017

NOTE: "FAIR" INDICATES FEW OR NO CLOUDS BELOW 12,000 FEET WITH NO
SIGNIFICANT WEATHER AND/OR OBSTRUCTIONS TO VISIBILITY.

* THESE STATIONS ARE NOT UNDER NWS QUALITY CONTROL. THEY ALSO MAY NOT
  REPORT WEATHER SUCH AS PRECIPITATION OR FOG.

INZ001>027-161000-
NORTHERN INDIANA

CITY           SKY/WX    TMP DP  RH WIND       PRES   REMARKS
KNOX*          CLOUDY    32  14  47 E3        30.29S
SOUTH BEND     CLOUDY    30  24  78 E3        30.29F
GOSHEN         CLOUDY    29  24  82 SE5       30.29F HAZE    WCI  24
FORT WAYNE     CLOUDY    31  27  85 E3        30.30S
PERU/GRISSOM   CLOUDY    33  31  96 E6        30.27F WCI  27

$$
INZ028>050-161000-
CENTRAL INDIANA

CITY           SKY/WX    TMP DP  RH WIND       PRES   REMARKS
LAFAYETTE      CLOUDY    33  31  92 E6        30.27F FOG     WCI  28
KOKOMO*        CLOUDY    33  31  92 E6        30.29F FOG     WCI  28
MUNCIE*        CLOUDY    34  31  88 E6        30.28F FOG     WCI  29
INDIANAPOLIS   CLOUDY    36  33  89 E7        30.27S FOG

$$
MIZ043>046-050>051-056>058-064>065-071>073-077>080-161000-
SOUTHWEST LOWER MICHIGAN

CITY           SKY/WX    TMP DP  RH WIND       PRES   REMARKS
BATTLE CREEK   CLOUDY    22  20  92 CALM      30.30F
BENTON HARBOR  MOCLDY    29  24  82 E5        30.29F WCI  24
COLDWATER*     CLOUDY    25  24  93 CALM      30.30F
HILLSDALE*     CLOUDY    21  19  93 CALM      30.29F FOG
HOLLAND        PTCLDY    26  22  84 CALM      30.30F
GRAND RAPIDS   CLOUDY    22  18  85 SE5       30.31F FOG     WCI  16
KALAMAZOO      CLOUDY    23  18  81 CALM      30.30F HAZE
STURGIS*       PTCLDY    27  24  89 E3        30.29F
THREE RIVERS*  FAIR      27  24  86 CALM      30.31S

$$
OHZ001>008-015>018-024>025-161000-
NORTHWEST OHIO

CITY           SKY/WX    TMP DP  RH WIND       PRES   REMARKS
DEFIANCE       MOCLDY    29  24  82 NE3       30.33S HAZE
FINDLAY        CLOUDY    30  25  81 E5        30.31F WCI  25
TOLEDO EXPRESS CLOUDY    21  21 100 CALM      30.34F FOG
TOLEDO METCALF CLOUDY    25  22  88 E3        30.35F FOG
LIMA           CLOUDY    32  30  92 SE7       30.30F FOG     WCI  26

$$
AND FOR LAKE MICHIGAN COASTAL AND OPEN LAKE BUOY OBSERVATIONS

STATION/POSITION TEMP    WIND        PRES    VSBY  WAVE
                 AIR SEA DIR/SP/G                  HT/PER
                 (F)     (DEG/KT/KT) (MB)    (MI)  (FT/S)
CALUMET HARBOR    33     160/  3/  5 1025.0R
MICHIGAN CITY     32     120/  6/  7   N/A
BURNS HARBOR      33     150/  6/  9 1026.1S
SAINT JOSEPH      29      CALM  /  2 1026.4

$$
&&




USA.gov is the U.S. government's official web portal to all federal, state and local government web resources and services.